Location: Newport
(44.6370°N, 124.0520°W)
Time: 20:35:43
(UTC-07:00)

Vanguard 3 - All Passes

Search period start: 19 October 2017 00:00
Search period end: 29 October 2017 00:00
Orbit: 510 x 3263 km, 33.3° (Epoch: 19 October)

Date Brightness Start Highest point End Pass type
(mag) Time Alt. Az. Time Alt. Az. Time Alt. Az.
19 Oct - 03:59:20 10° SSW 04:09:25 21° SSE 04:16:44 10° ESE visible
19 Oct - 06:11:41 10° SW 06:22:20 34° S 06:28:53 10° ESE visible
19 Oct - 08:26:29 10° WSW 08:34:09 32° S 08:39:00 10° SE daylight
19 Oct - 10:42:06 10° WSW 10:44:39 13° SSW 10:46:49 10° S daylight
20 Oct - 02:46:19 10° S 02:54:42 16° SSE 03:01:29 10° ESE visible
20 Oct - 04:56:06 10° SW 05:08:03 31° SSE 05:15:45 10° ESE visible
20 Oct - 07:10:33 10° WSW 07:20:35 38° S 07:26:37 10° ESE visible
20 Oct - 09:25:54 10° WSW 09:31:48 24° SSW 09:35:52 10° SSE daylight
21 Oct - 03:41:06 10° SSW 03:53:25 26° SSE 04:02:01 10° ESE visible
21 Oct - 05:54:27 10° SW 06:06:34 39° S 06:13:52 10° ESE visible
21 Oct - 08:09:54 10° WSW 08:18:34 34° SSW 08:23:55 10° SE daylight
21 Oct - 10:26:18 10° WSW 10:29:02 13° SW 10:31:20 10° S daylight
22 Oct - 02:27:18 10° S 02:38:31 20° SSE 02:47:14 10° ESE visible
22 Oct - 04:38:29 10° SW 04:52:07 36° SSE 05:00:45 10° ESE visible
22 Oct - 06:53:37 10° WSW 07:04:54 41° S 07:11:31 10° ESE visible
22 Oct - 09:09:35 10° WSW 09:16:11 24° SSW 09:20:39 10° SSE daylight
23 Oct - 01:15:58 10° SSE 01:23:30 14° SE 01:30:09 10° ESE visible
23 Oct - 03:23:06 10° SSW 03:37:16 31° SSE 03:47:03 10° ESE visible
23 Oct - 05:37:12 10° WSW 05:50:43 43° S 05:58:46 10° ESE visible
23 Oct - 07:53:13 10° WSW 08:02:55 36° SSW 08:08:48 10° SE daylight
23 Oct - 10:10:26 10° WSW 10:13:20 13° SW 10:15:46 10° SSW daylight
24 Oct - 02:08:48 10° SSW 02:22:10 25° SSE 02:32:28 10° ESE visible
24 Oct - 04:20:57 10° SW 04:36:03 41° SSE 04:45:36 10° ESE visible
24 Oct - 06:36:39 10° WSW 06:49:06 44° S 06:56:24 10° ESE visible
24 Oct - 08:53:10 10° W 09:00:29 25° SSW 09:05:22 10° SSE daylight
25 Oct - 00:56:22 10° S 01:07:01 18° SE 01:16:13 10° ESE visible
25 Oct - 03:05:18 10° SW 03:20:59 36° SSE 03:31:53 10° E visible
25 Oct - 05:19:57 10° WSW 05:34:44 47° S 05:43:35 10° ESE visible
25 Oct - 07:36:27 10° W 07:47:09 37° SSW 07:53:35 10° SE daylight
25 Oct - 09:54:30 10° WSW 09:57:33 13° SW 10:00:06 10° SSW daylight
25 Oct - 23:51:58 10° SE 23:52:01 10° SE 23:52:04 10° SE night (unlit)
26 Oct - 01:50:41 10° SSW 02:05:41 29° SSE 02:17:20 10° E visible
26 Oct - 04:03:30 10° SW 04:19:51 45° S 04:30:20 10° ESE visible
26 Oct - 06:19:37 10° WSW 06:33:12 46° S 06:41:10 10° ESE visible
26 Oct - 08:36:39 10° W 08:44:40 25° SSW 08:50:01 10° SSE daylight
27 Oct - 00:37:40 10° S 00:50:24 21° SE 01:01:27 10° ESE visible
27 Oct - 02:47:40 10° SW 03:04:33 40° SSE 03:16:32 10° E visible
27 Oct - 05:02:44 10° WSW 05:18:39 50° S 05:28:19 10° ESE visible
27 Oct - 07:19:36 10° W 07:31:16 37° SSW 07:38:18 10° SE visible
27 Oct - 09:38:32 10° WSW 09:41:39 12° SW 09:44:18 10° SSW daylight
27 Oct - 23:27:56 10° SSE 23:35:19 13° SE 23:42:24 10° ESE night (unlit)
28 Oct - 01:32:52 10° SSW 01:49:04 33° SSE 02:01:58 10° E visible
28 Oct - 03:46:08 10° WSW 04:03:32 49° S 04:14:57 10° ESE visible
28 Oct - 06:02:32 10° WSW 06:17:11 47° SSW 06:25:53 10° ESE visible
28 Oct - 08:20:03 10° W 08:28:45 25° SW 08:34:35 10° SSE daylight
